Wetbulb
61.43 61.48 60.22 58.78 57.74 57.40 57.42 57.46 57.45 57.65 57.73 57.96 58.95 59.82 61.62 62.20 62.22 58.75 53.33 56.72 58.08 62.74 61.11 56.20 54.79 53.92 53.32 51.69 54.33 51.84 45.65 41.96 42.60 42.22 45.20 49.54 48.70 51.92 52.89 51.08 52.57 53.68 53.96 55.65 58.81
60.80 61.17 60.85 59.66 58.46 57.66 57.39 57.47 57.00 57.13 57.32 57.69 58.23 58.98 60.52 60.99 58.51 56.34 60.46 62.90 63.56 62.90 56.74 53.09 50.62 51.71 48.44 49.54 51.02 49.84 44.82 43.74 46.87 46.54 46.79 48.59 49.03 49.93 50.68 50.27 51.33 52.74 55.13 56.43 59.01
60.56 60.61 60.82 60.41 59.42 58.03 57.61 57.50 56.83 56.74 56.85 57.33 58.04 58.14 58.94 59.13 50.80 50.53 60.69 64.75 64.90 63.29 57.54 55.23 53.60 50.92 46.80 48.41 48.38 48.60 44.47 46.88 48.24 50.19 50.83 49.68 49.44 51.30 49.56 48.62 51.48 51.94 53.28 54.73 57.95
59.39 60.36 60.51 60.59 60.06 58.61 57.91 57.43 56.78 56.41 56.19 56.58 57.61 57.71 58.14 54.31 37.53 51.79 60.50 60.95 63.25 61.22 57.20 53.16 50.79 46.67 44.66 43.89 47.36 43.99 47.11 48.64 49.69 51.07 50.21 49.28 51.13 50.46 50.01 51.32 53.62 53.29 53.79 53.65 54.59
57.99 58.89 59.85 60.14 60.21 59.11 58.03 57.61 57.06 56.44 56.04 55.96 56.72 57.51 53.31 45.92 46.84 53.90 58.49 56.02 57.25 58.84 55.51 51.96 48.06 46.27 43.08 43.96 45.41 44.76 45.65 47.79 48.81 47.52 47.61 49.47 48.49 49.14 50.10 53.01 54.18 55.17 55.18 54.62 54.75
55.98 57.20 57.93 59.17 59.92 59.57 58.76 58.03 57.21 56.67 56.26 55.85 55.87 56.17 48.58 37.13 48.58 51.76 51.67 52.49 57.47 57.92 55.61 53.50 49.94 48.91 45.63 44.68 43.64 44.92 44.91 45.27 46.28 46.48 47.22 46.56 47.16 48.03 49.74 53.02 53.17 53.11 53.73 53.78 53.59
54.21 55.44 56.51 57.49 59.02 59.47 58.62 58.40 57.53 56.65 56.42 55.74 56.21 53.45 47.29 43.56 51.31 51.32 51.93 50.17 52.34 57.07 54.06 54.94 53.34 49.83 48.08 44.96 47.74 46.31 42.64 44.04 44.51 45.50 45.20 47.29 43.02 43.85 49.75 51.34 51.07 51.99 53.11 54.42 54.74
52.85 54.02 55.07 56.45 58.08 59.08 58.77 58.33 57.69 57.28 56.62 56.19 56.41 50.05 40.33 50.71 51.44 51.07 51.31 49.81 51.54 52.82 53.33 55.46 55.16 51.67 49.13 48.30 45.11 42.67 42.19 36.86 42.19 44.24 45.17 45.55 37.24 45.05 49.14 48.75 49.05 50.51 51.75 52.37 54.48
52.85 52.95 53.47 55.55 56.92 58.27 58.50 58.32 57.73 57.10 56.66 56.42 50.18 45.45 39.99 51.77 48.73 50.54 50.36 47.63 49.34 50.36 50.44 54.29 51.47 46.20 46.23 41.86 38.07 39.79 33.28 35.83 38.41 44.15 43.99 43.74 40.16 45.84 48.32 47.27 47.31 48.72 49.96 50.77 52.12
51.97 52.40 52.70 54.13 55.61 57.42 58.25 57.80 56.62 55.52 53.79 54.17 51.77 43.84 44.33 43.65 48.19 49.21 50.46 49.45 46.53 46.84 46.40 45.98 44.12 40.07 40.42 38.41 29.12 32.24 33.85 35.66 35.53 40.54 41.09 39.41 39.30 43.22 45.35 45.48 46.12 46.94 48.15 49.01 49.87
51.59 51.77 52.44 53.91 54.67 56.70 56.40 51.80 46.18 44.87 47.40 40.80 42.36 42.11 44.72 48.50 50.44 47.84 49.50 47.28 45.61 43.34 38.50 41.69 38.01 34.09 37.31 37.94 37.81 36.82 35.52 34.60 38.18 41.54 37.84 37.75 38.21 40.76 43.81 44.13 43.86 45.06 46.26 47.77 48.83
50.82 51.19 51.78 52.65 54.48 55.02 53.40 46.75 45.45 46.04 39.12 44.88 45.31 46.10 47.96 49.01 43.24 46.20 49.04 42.63 41.00 36.47 38.03 37.50 33.69 38.36 40.51 39.88 38.24 37.20 35.15 34.55 37.53 39.34 37.79 36.51 35.84 39.91 41.83 42.51 44.13 44.75 45.56 46.84 48.99
50.15 50.82 51.17 51.47 52.33 52.75 50.27 48.16 48.81 47.68 36.64 39.53 43.62 43.30 45.23 47.08 42.88 43.35 45.84 42.45 38.81 35.74 35.63 33.33 35.42 38.79 37.93 35.96 35.06 34.85 33.68 33.89 33.09 35.91 37.22 34.92 32.68 36.38 39.75 41.49 43.11 44.58 45.84 46.81 47.79
49.81 50.19 50.84 50.81 48.66 51.89 48.56 49.80 48.79 46.86 24.80 31.29 38.94 42.51 45.21 46.50 40.30 47.82 47.40 43.39 39.31 35.95 35.92 35.28 39.11 36.77 35.03 34.24 35.20 30.75 35.93 35.27 33.72 31.96 26.38 34.32 24.60 33.71 37.52 38.84 40.80 40.92 42.57 44.39 46.02
49.72 49.87 50.29 49.71 45.76 46.04 49.80 50.51 47.42 43.12 10.89 34.34 39.38 48.15 46.30 40.84 41.47 42.37 48.01 44.93 37.87 37.10 37.18 33.81 35.39 34.92 33.85 34.56 35.70 32.99 36.71 34.72 34.37 32.21 30.81 30.91 27.59 31.27 35.03 34.52 37.91 40.45 41.73 43.00 45.81
49.42 49.31 49.43 47.30 47.85 48.38 51.78 50.43 44.71 27.73 12.68 34.30 39.67 39.82 39.98 40.90 41.88 42.99 43.69 46.54 44.32 39.44 39.21 35.61 39.52 37.87 36.26 37.80 37.59 38.78 35.19 35.04 34.90 32.77 26.04 29.87 28.88 29.57 33.38 35.47 37.42 40.78 42.51 43.77 46.27
50.39 50.95 48.38 48.01 42.56 52.44 51.57 45.04 28.73 17.94 32.52 32.47 34.49 38.72 37.93 36.66 38.71 40.04 38.87 37.85 35.19 31.53 30.56 34.99 36.93 39.63 39.50 34.92 37.12 36.43 33.64 26.10 24.55 24.99 22.96 30.11 28.21 31.02 36.21 38.66 39.33 39.62 40.76 42.55 44.47
50.47 50.82 49.76 48.18 49.78 48.96 46.91 35.89 19.09 28.02 29.78 36.79 36.02 36.71 33.41 36.66 36.63 37.57 36.78 34.84 38.64 36.95 33.19 29.44 23.98 35.58 39.31 36.25 33.16 33.60 32.70 26.81 19.29 20.10 22.61 28.54 25.54 31.04 38.15 41.30 41.98 42.40 42.95 43.63 43.51
50.44 48.44 47.41 48.67 49.75 47.15 40.46 28.55 25.58 29.11 34.99 34.20 34.85 31.63 31.57 34.58 34.70 35.76 35.04 33.84 36.70 38.67 31.75 28.76 27.33 35.90 37.95 38.24 37.31 33.43 29.74 34.71 28.57 29.00 25.91 28.51 30.36 35.00 37.85 37.88 40.61 42.31 44.11 43.20 43.07
46.11 44.66 42.56 48.90 48.99 44.41 34.06 30.44 30.20 35.75 37.29 35.96 29.96 32.17 28.76 32.09 31.98 33.29 32.27 33.70 35.22 38.34 39.81 33.08 25.68 32.11 35.56 38.65 38.29 36.02 36.48 28.61 29.25 20.61 19.73 24.91 25.84 28.40 32.75 36.20 40.15 41.68 43.73 44.54 43.93
44.28 39.22 45.72 50.09 47.24 39.50 31.26 31.22 34.77 38.65 38.48 34.50 32.40 31.48 31.98 32.05 32.73 32.82 30.38 33.05 35.57 34.77 37.66 34.52 30.36 28.38 34.95 32.52 31.39 33.82 32.30 33.11 31.48 29.03 22.06 20.16 25.21 32.74 33.99 39.74 40.12 41.95 44.09 44.01 43.99
42.62 35.05 47.80 50.31 34.49 34.53 34.40 34.99 40.55 37.73 39.49 37.95 37.16 35.15 32.83 33.33 32.33 32.61 30.31 31.85 36.52 36.16 33.45 35.89 32.06 25.29 27.55 35.05 37.58 35.39 33.08 32.29 27.28 25.02 27.99 24.61 25.87 40.15 39.55 40.54 42.36 42.83 44.48 44.35 44.19
39.09 40.29 47.94 45.03 31.50 33.53 37.37 36.74 38.97 37.59 37.12 37.02 35.99 38.13 38.03 33.65 30.70 32.40 32.03 37.02 37.55 36.02 33.57 35.69 31.49 24.17 25.69 31.14 34.99 32.66 34.10 34.28 33.25 32.14 26.78 23.29 26.02 37.74 37.64 40.37 43.05 43.05 44.57 44.29 43.37
39.67 34.78 39.36 42.16 40.66 36.87 34.72 34.95 35.59 39.74 38.72 39.85 38.63 39.29 36.69 35.82 36.74 33.16 32.74 36.65 37.54 37.72 40.98 39.40 33.32 29.07 25.19 29.55 33.48 30.73 32.88 33.93 31.90 27.42 27.42 27.26 29.15 33.97 36.12 37.37 40.40 43.39 45.14 45.26 43.64
41.31 35.40 37.66 32.27 35.51 36.96 37.04 36.41 34.38 34.20 38.78 40.18 38.12 38.08 36.49 33.67 33.79 33.57 34.32 34.86 36.98 39.40 38.75 37.14 30.75 32.60 33.10 33.71 33.57 32.22 32.12 32.82 30.91 31.01 27.49 29.90 29.91 33.76 36.00 37.62 42.17 43.61 44.20 45.04 44.29
40.39 39.14 40.22 37.46 39.17 36.80 37.06 33.12 34.46 36.93 37.05 36.52 35.93 37.83 38.33 36.30 35.46 31.11 33.41 33.48 33.31 35.75 35.93 38.61 31.68 33.54 30.99 34.39 34.35 31.89 35.28 34.39 33.18 33.06 32.25 32.45 31.36 37.95 40.41 41.88 41.02 40.82 42.03 44.07 44.92
44.60 45.70 41.69 38.35 37.37 36.27 34.60 34.67 35.24 39.09 39.39 40.37 39.49 38.16 37.72 38.30 41.34 41.17 42.20 39.29 38.43 37.09 36.14 36.98 33.66 32.39 28.80 34.59 34.81 31.48 35.31 34.31 34.28 35.03 34.02 30.13 34.63 38.94 38.23 39.71 40.51 40.81 42.01 42.98 45.33
MSLP
1014.73 1014.57 1014.73 1014.92 1014.88 1015.09 1014.97 1014.95 1014.92 1014.80 1014.77 1014.57 1014.28 1014.05 1013.84 1013.66 1013.87 1014.31 1014.36 1013.65 1013.95 1013.52 1013.60 1013.70 1013.86 1013.98 1013.93 1014.30 1014.51 1014.57 1014.95 1014.77 1014.40 1014.23 1013.43 1012.92 1012.56 1011.98 1011.63 1011.39 1011.10 1010.77 1010.60 1010.70 1010.85
1014.53 1014.24 1014.26 1014.49 1014.46 1014.65 1014.65 1014.73 1014.59 1014.73 1014.64 1014.61 1014.17 1013.96 1013.94 1013.85 1013.92 1013.58 1013.07 1013.08 1013.16 1013.41 1013.62 1013.95 1014.22 1014.23 1014.44 1014.56 1014.70 1014.81 1014.97 1014.42 1014.01 1013.75 1013.45 1013.16 1012.91 1012.43 1012.05 1011.69 1011.33 1010.96 1010.67 1010.77 1010.96
1014.32 1014.00 1013.92 1013.99 1014.16 1014.09 1014.35 1014.61 1014.48 1014.56 1014.52 1014.43 1014.17 1014.03 1013.99 1014.08 1014.08 1013.13 1012.52 1012.48 1012.70 1013.11 1013.74 1014.13 1014.38 1014.39 1014.80 1014.82 1015.01 1015.11 1014.80 1014.30 1013.87 1013.65 1013.58 1013.43 1013.12 1012.69 1012.29 1011.84 1011.25 1011.14 1010.87 1010.82 1010.92
1014.42 1013.70 1013.47 1013.56 1013.67 1013.82 1013.87 1014.27 1014.28 1014.29 1014.33 1014.28 1014.25 1014.06 1013.99 1014.23 1014.26 1012.97 1012.36 1012.30 1012.20 1012.97 1013.75 1014.33 1014.58 1014.67 1015.13 1015.19 1015.19 1015.41 1014.84 1014.56 1014.10 1013.79 1013.73 1013.57 1013.30 1012.84 1012.40 1011.47 1011.29 1011.16 1011.20 1011.06 1010.91
1014.25 1013.71 1013.24 1013.06 1013.14 1013.34 1013.45 1013.87 1014.04 1014.13 1014.11 1014.14 1014.26 1014.12 1014.11 1014.45 1013.83 1012.99 1012.74 1012.53 1012.47 1012.84 1013.46 1014.15 1014.59 1014.81 1015.25 1015.52 1015.54 1015.53 1015.06 1014.67 1014.32 1014.15 1013.92 1013.61 1013.05 1012.79 1011.94 1011.57 1011.44 1011.31 1011.24 1010.98 1010.76
1014.10 1013.62 1013.25 1012.85 1012.66 1012.85 1013.11 1013.51 1013.60 1013.93 1014.00 1013.99 1014.23 1014.25 1014.34 1014.40 1013.15 1013.08 1012.87 1012.59 1012.74 1012.97 1013.38 1013.88 1014.31 1014.78 1015.31 1015.59 1015.76 1015.60 1015.28 1014.89 1014.42 1014.13 1013.78 1013.41 1012.59 1012.74 1011.16 1011.27 1011.04 1011.08 1010.90 1010.56 1010.36
1014.02 1013.51 1013.17 1012.80 1012.31 1012.31 1012.61 1013.01 1013.38 1013.60 1013.80 1013.93 1014.22 1014.36 1014.34 1013.43 1012.97 1013.09 1012.96 1012.93 1012.92 1012.80 1013.34 1013.85 1014.22 1014.82 1015.30 1015.69 1015.62 1015.62 1015.60 1014.88 1014.24 1013.82 1013.57 1013.16 1012.22 1011.39 1010.93 1010.87 1010.46 1010.30 1010.22 1010.11 1009.78
1013.93 1013.38 1012.82 1012.43 1011.86 1011.75 1012.04 1012.61 1013.02 1013.31 1013.71 1013.94 1014.18 1014.48 1013.89 1012.72 1012.93 1013.07 1013.12 1013.07 1013.07 1013.10 1013.42 1013.83 1014.49 1014.95 1015.39 1015.82 1015.72 1015.78 1015.59 1014.98 1013.98 1013.62 1013.20 1013.12 1011.16 1010.66 1010.40 1010.30 1009.92 1009.72 1009.61 1009.59 1009.12
1013.63 1013.06 1012.58 1012.06 1011.57 1011.24 1011.54 1012.18 1012.68 1013.18 1013.63 1013.91 1014.45 1014.62 1013.52 1012.60 1012.82 1012.82 1012.93 1013.08 1013.37 1013.66 1013.75 1014.02 1014.54 1015.29 1015.79 1016.04 1016.23 1015.77 1015.33 1014.98 1014.18 1013.38 1013.15 1013.07 1011.49 1010.56 1010.32 1010.19 1010.01 1009.73 1009.55 1009.34 1009.11
1013.25 1012.75 1012.21 1011.79 1011.22 1010.75 1011.04 1011.86 1012.57 1013.32 1013.82 1014.04 1014.19 1014.80 1013.25 1012.67 1012.55 1012.86 1012.90 1013.03 1013.52 1014.09 1014.38 1014.62 1015.12 1015.60 1015.90 1016.08 1015.90 1015.69 1015.48 1014.91 1014.44 1013.95 1013.50 1012.93 1011.57 1011.07 1010.62 1010.07 1009.52 1009.40 1009.23 1009.02 1008.80
1012.83 1012.28 1011.84 1011.27 1010.97 1010.40 1010.80 1011.83 1012.97 1013.69 1013.70 1013.25 1013.34 1013.49 1012.74 1012.56 1012.46 1012.94 1012.94 1013.20 1013.73 1014.52 1015.09 1015.18 1015.43 1015.35 1015.46 1015.73 1015.73 1015.82 1015.68 1015.17 1014.69 1014.25 1013.97 1012.78 1011.22 1010.73 1010.18 1009.79 1009.33 1008.95 1008.69 1008.35 1008.09
1012.45 1011.96 1011.56 1011.06 1010.49 1009.86 1009.44 1010.27 1010.19 1010.38 1012.62 1012.81 1013.17 1013.26 1012.98 1012.74 1012.65 1012.94 1013.07 1013.60 1014.13 1014.93 1015.44 1015.94 1015.35 1015.14 1015.36 1015.68 1015.86 1015.74 1015.57 1015.09 1014.60 1014.56 1014.36 1013.00 1009.80 1010.00 1009.31 1008.27 1008.04 1007.77 1007.66 1007.51 1007.28
1011.91 1011.46 1011.17 1010.69 1010.15 1009.61 1008.74 1009.15 1009.47 1009.62 1011.67 1012.62 1012.63 1012.83 1012.87 1012.90 1012.68 1012.80 1013.15 1013.60 1014.27 1015.09 1015.36 1015.31 1015.06 1014.93 1015.58 1015.78 1015.96 1015.74 1015.56 1015.30 1015.13 1015.05 1014.44 1013.46 1009.15 1007.87 1006.68 1006.57 1006.70 1006.75 1006.56 1006.48 1006.37
1011.14 1010.90 1010.71 1010.42 1009.85 1008.91 1008.74 1008.94 1009.00 1009.64 1011.97 1012.44 1012.57 1012.08 1012.32 1012.63 1012.60 1012.28 1012.68 1013.21 1014.21 1014.75 1015.37 1015.32 1014.86 1015.13 1015.58 1015.71 1015.96 1015.58 1015.42 1015.28 1015.46 1015.71 1014.57 1013.88 1010.03 1007.48 1006.76 1006.19 1005.93 1005.84 1005.66 1005.43 1005.36
1010.61 1010.40 1010.20 1010.43 1010.22 1009.28 1008.79 1008.96 1008.75 1010.00 1011.93 1012.03 1012.17 1011.89 1011.91 1012.48 1012.25 1012.43 1012.44 1012.77 1013.53 1014.19 1014.93 1014.65 1014.63 1014.95 1015.21 1015.24 1015.64 1015.32 1015.06 1015.22 1015.32 1015.23 1014.73 1013.72 1013.15 1006.53 1007.00 1006.14 1005.61 1004.95 1004.50 1004.47 1004.44
1009.74 1009.46 1009.62 1009.75 1009.55 1008.85 1009.20 1008.90 1009.02 1010.95 1011.32 1011.41 1011.61 1011.61 1011.95 1012.25 1012.13 1012.45 1012.54 1012.80 1013.31 1013.81 1014.10 1014.22 1014.37 1014.54 1014.46 1014.51 1014.71 1014.87 1015.23 1015.22 1015.12 1015.01 1013.52 1012.42 1012.44 1005.97 1006.18 1005.34 1004.73 1004.37 1004.08 1003.90 1003.79
1007.86 1007.34 1008.09 1008.70 1008.47 1008.17 1008.58 1008.93 1010.63 1010.51 1010.71 1011.16 1011.16 1011.36 1011.50 1011.94 1012.12 1012.15 1012.46 1012.83 1013.11 1013.70 1013.90 1013.88 1013.63 1013.81 1014.02 1014.33 1014.46 1014.81 1015.22 1014.96 1014.56 1013.84 1012.02 1011.12 1011.08 1006.35 1005.64 1005.17 1004.65 1004.04 1003.49 1003.27 1003.13
1006.63 1005.88 1006.16 1006.83 1007.59 1007.99 1007.90 1009.14 1009.87 1009.53 1010.08 1010.25 1010.65 1011.25 1011.55 1011.75 1011.95 1012.11 1012.47 1012.66 1012.85 1013.29 1013.72 1013.66 1013.38 1013.28 1013.48 1013.34 1013.38 1013.72 1014.02 1013.67 1012.96 1012.50 1011.67 1010.96 1008.70 1005.88 1004.91 1004.17 1003.79 1003.59 1003.39 1002.88 1002.76
1005.66 1005.77 1006.04 1006.55 1007.24 1008.32 1008.54 1008.65 1008.12 1008.39 1008.86 1009.63 1010.91 1011.31 1011.68 1011.88 1012.04 1012.10 1012.31 1012.24 1012.03 1012.72 1013.39 1013.45 1013.46 1013.22 1013.29 1013.17 1013.43 1013.29 1013.14 1012.85 1012.80 1012.00 1011.27 1009.14 1006.82 1005.54 1004.31 1004.18 1004.16 1003.96 1003.38 1002.70 1002.25
1005.98 1006.23 1006.30 1006.69 1007.49 1008.71 1008.71 1007.95 1007.88 1007.59 1008.21 1009.05 1009.73 1010.63 1011.13 1011.58 1012.07 1012.11 1012.10 1011.80 1011.79 1011.77 1012.47 1013.33 1013.46 1012.85 1012.81 1012.97 1012.76 1012.64 1012.90 1012.83 1012.59 1011.41 1009.78 1007.57 1006.65 1004.84 1004.04 1003.67 1004.04 1003.69 1003.27 1002.43 1002.02
1006.35 1006.18 1006.06 1006.56 1007.62 1008.24 1008.20 1007.97 1007.69 1007.83 1007.93 1008.55 1009.03 1009.91 1010.39 1010.89 1011.51 1011.76 1011.87 1011.78 1011.67 1012.00 1012.28 1013.11 1013.66 1013.05 1012.78 1012.10 1011.58 1012.27 1012.09 1011.91 1011.52 1010.52 1009.09 1007.55 1004.88 1003.61 1003.28 1003.76 1003.68 1003.46 1003.02 1002.63 1002.23
1006.43 1006.09 1006.06 1006.18 1007.41 1008.10 1008.01 1007.41 1007.55 1008.11 1008.06 1008.32 1008.56 1009.15 1009.85 1010.46 1011.05 1011.52 1011.66 1011.62 1011.53 1011.96 1012.65 1012.74 1013.05 1012.49 1011.41 1010.23 1010.22 1010.45 1010.02 1010.34 1009.96 1008.91 1008.27 1007.33 1002.94 1003.29 1003.49 1003.50 1003.27 1003.12 1002.97 1002.70 1002.83
1006.09 1005.75 1006.58 1006.28 1007.38 1007.80 1007.79 1007.51 1007.60 1008.07 1008.26 1008.37 1008.71 1008.95 1009.44 1010.12 1010.88 1011.03 1011.32 1011.13 1011.31 1011.45 1011.67 1012.10 1012.38 1012.10 1010.37 1010.12 1009.67 1009.29 1008.50 1008.65 1008.74 1008.66 1007.09 1006.81 1002.55 1002.66 1002.73 1002.97 1003.00 1003.16 1003.16 1002.96 1003.52
1006.19 1006.35 1007.03 1007.63 1007.40 1007.41 1007.38 1007.69 1008.04 1008.22 1008.33 1008.28 1008.75 1009.01 1009.58 1009.95 1010.29 1010.81 1011.05 1010.73 1010.86 1011.04 1011.21 1011.42 1011.53 1011.03 1010.13 1008.88 1008.70 1008.08 1007.77 1008.00 1008.17 1007.49 1005.56 1004.61 1003.16 1003.17 1002.54 1002.44 1002.65 1003.02 1003.15 1003.27 1004.06
1006.26 1006.91 1007.29 1007.42 1007.58 1007.46 1007.19 1007.74 1008.17 1008.44 1008.41 1008.38 1008.90 1008.92 1009.26 1009.55 1009.88 1010.13 1010.50 1010.58 1010.71 1010.82 1011.06 1011.28 1010.70 1010.33 1008.99 1007.87 1007.57 1006.80 1006.29 1006.63 1006.50 1005.85 1005.70 1002.96 1003.10 1002.75 1002.62 1002.65 1002.99 1003.24 1003.49 1003.21 1004.05
1006.35 1006.28 1006.81 1006.78 1006.96 1007.06 1007.28 1007.73 1007.85 1008.13 1008.27 1008.53 1008.69 1008.58 1008.92 1009.04 1009.13 1009.41 1009.77 1010.09 1009.95 1010.27 1010.73 1010.74 1010.01 1009.37 1007.33 1006.85 1005.92 1005.10 1004.55 1004.42 1005.13 1005.19 1004.50 1003.78 1002.01 1002.47 1002.03 1002.01 1002.54 1003.02 1003.07 1003.13 1003.52
1007.29 1006.40 1006.15 1007.12 1007.02 1006.98 1007.09 1007.48 1007.66 1007.77 1008.14 1007.93 1008.08 1008.45 1008.50 1008.20 1008.52 1008.70 1009.00 1009.28 1009.46 1009.68 1009.98 1009.96 1009.74 1008.92 1006.10 1005.33 1004.23 1003.69 1003.03 1003.24 1003.53 1003.66 1003.52 1003.00 1001.82 1001.95 1001.67 1002.05 1002.17 1002.23 1002.98 1002.97 1003.10
Wind_Speed
16 14 11 10 7 8 7 7 7 7 7 8 8 9 11 6 7 5 5 8 5 8 2 2 3 2 2 2 2 2 3 6 7 8 5 1 2 1 2 2 4 2 2 2 2
16 14 14 13 10 8 8 7 5 7 7 7 6 7 9 7 3 10 8 9 9 4 3 2 2 1 2 2 1 2 3 8 6 5 3 2 1 2 3 4 3 4 3 5 3
19 16 16 14 13 9 8 7 5 5 5 6 5 5 6 5 2 5 5 17 15 8 4 2 3 2 2 1 3 3 5 4 3 2 1 2 4 3 3 6 7 6 5 5 0
22 20 16 17 14 12 9 8 5 4 3 4 4 2 4 2 5 1 5 5 10 8 8 4 2 3 3 3 2 2 5 4 2 2 2 2 2 5 6 9 3 5 4 5 9
21 21 19 16 17 14 11 9 7 5 2 2 4 3 3 2 7 2 7 7 2 12 9 6 3 4 3 2 2 3 3 3 4 6 6 6 12 11 12 10 8 11 10 13 11
24 20 21 18 16 15 13 12 8 7 4 1 1 1 4 2 2 4 4 3 3 9 8 6 5 3 3 2 3 2 3 6 6 8 5 11 17 6 11 11 16 12 14 12 10
26 23 19 21 17 17 15 14 11 8 6 4 3 2 1 10 3 3 5 2 2 3 6 4 5 4 4 1 2 2 5 7 7 7 8 4 16 15 17 16 19 17 15 15 15
22 24 22 20 19 17 17 15 13 9 7 5 5 2 7 2 2 2 1 2 3 4 4 5 5 2 2 0 2 3 3 3 3 1 6 9 11 10 11 11 19 20 17 15 19
23 23 24 20 21 15 16 15 12 10 9 7 3 3 8 1 2 3 3 5 5 3 3 6 5 4 2 2 4 4 4 5 5 5 2 10 6 3 1 4 8 9 11 11 14
24 23 22 20 19 13 18 15 10 9 4 3 2 2 4 2 3 4 1 5 4 5 3 3 3 3 3 5 6 4 5 6 5 1 4 13 19 16 14 13 16 12 11 11 12
25 22 20 21 14 17 16 10 7 2 3 7 5 3 1 1 3 2 2 5 4 5 5 2 5 9 11 6 4 1 3 11 7 8 11 15 22 19 18 17 18 17 17 16 13
23 22 17 18 18 21 16 6 8 10 6 11 4 4 2 1 3 3 6 5 5 5 5 3 10 9 8 5 10 11 13 15 11 9 12 14 28 18 18 21 20 20 18 18 16
21 22 17 18 20 10 15 13 8 7 6 3 5 6 3 4 2 6 7 4 4 5 7 6 4 5 8 5 11 10 13 12 17 9 14 17 27 17 16 21 20 21 21 20 19
22 21 18 18 8 2 12 9 9 6 6 5 5 5 7 3 4 7 8 6 3 11 6 6 8 4 4 8 10 17 7 10 10 6 8 2 14 7 7 14 13 12 14 19 20
21 19 19 8 11 7 6 7 9 6 3 3 5 2 7 10 5 1 3 3 7 7 5 4 6 5 12 12 9 7 5 6 8 8 12 13 8 7 1 4 8 11 14 15 16
25 23 18 7 5 6 10 10 6 6 7 7 5 6 9 6 5 3 5 1 2 5 8 7 3 5 8 7 14 1 3 4 3 6 11 10 11 21 6 8 5 8 11 11 13
26 26 20 11 9 6 13 10 5 5 2 8 6 8 8 7 5 5 7 9 5 5 5 3 15 6 4 5 3 12 3 3 5 7 8 5 11 21 9 16 15 13 13 13 12
30 19 11 11 11 5 10 4 5 5 4 5 7 9 5 6 4 7 5 7 11 5 1 4 5 11 9 13 7 14 11 6 6 6 4 2 10 9 14 16 14 13 16 16 11
8 3 4 7 8 5 5 4 7 7 8 11 11 6 4 4 3 5 8 5 8 13 6 3 5 2 7 3 11 5 12 10 9 12 10 9 13 11 13 9 3 7 10 13 12
1 2 4 11 9 4 2 5 3 5 13 11 6 5 10 9 7 8 7 3 5 10 11 1 5 3 1 5 9 10 1 5 6 6 9 6 7 11 5 5 3 8 13 13 10
2 3 5 11 7 3 2 1 5 5 6 4 5 6 5 7 8 6 3 3 5 1 9 5 4 3 4 10 10 9 8 7 4 5 6 7 9 7 6 6 3 9 13 13 13
3 0 3 11 4 1 2 5 5 3 5 3 4 5 5 8 6 6 7 5 7 8 9 8 4 5 12 11 16 19 20 17 8 11 5 4 20 4 6 4 5 9 11 10 11
2 1 6 6 3 2 2 4 5 3 2 2 3 3 3 5 3 6 4 3 9 9 10 9 5 5 6 2 6 12 19 19 11 4 14 7 11 3 2 5 6 7 10 8 7
2 3 4 1 2 4 5 3 5 4 3 4 4 3 4 3 4 1 4 3 10 7 9 10 4 8 10 15 9 9 14 19 19 8 16 20 21 15 16 13 10 6 9 7 4
1 3 2 3 2 7 4 5 6 4 2 3 3 5 4 4 4 6 7 3 5 11 6 9 8 10 19 26 23 24 25 17 21 24 12 18 22 15 14 12 2 3 9 10 6
1 2 1 2 7 7 5 5 8 4 6 5 2 7 7 6 7 5 3 4 6 3 7 5 6 5 21 22 23 20 16 15 20 21 24 22 27 12 6 5 2 6 11 13 9
3 4 1 8 6 6 4 6 8 7 3 1 9 4 8 11 10 10 8 4 2 4 10 4 3 3 14 10 17 5 5 9 11 17 14 18 17 2 5 10 12 10 13 16 12
Wind_Direction
294 260 252 253 240 262 270 284 299 306 304 315 325 338 338 308 186 151 215 207 203 256 305 337 42 1 83 100 107 153 136 210 223 173 224 242 186 306 301 283 335 297 249 342 59
301 281 244 246 239 244 263 273 289 298 306 313 326 346 1 1 226 223 225 214 220 193 101 112 108 40 78 101 73 161 188 213 196 186 228 285 279 334 334 333 284 318 323 357 144
306 289 259 244 243 221 242 259 264 283 297 316 334 359 5 357 303 247 267 235 226 170 118 106 125 100 103 125 177 174 227 185 206 195 271 267 290 240 225 262 235 269 295 340 63
336 308 280 251 238 233 218 237 247 256 292 322 340 14 33 45 221 269 46 345 241 171 137 118 85 98 119 184 176 213 256 238 233 342 315 254 305 272 243 248 274 215 301 303 310
334 336 311 270 238 228 216 215 222 233 243 346 339 37 78 91 249 317 330 348 270 151 158 145 129 123 163 185 133 212 258 258 291 305 275 266 247 249 246 250 264 283 285 278 280
328 334 328 298 246 220 214 202 207 214 204 183 353 80 104 211 235 349 304 18 67 156 155 140 160 154 156 183 179 208 259 273 280 264 257 253 262 221 245 229 246 240 245 257 256
323 326 332 322 280 222 206 197 196 201 193 186 173 117 121 240 110 325 11 54 6 136 152 137 139 141 143 175 212 232 280 277 241 226 241 240 260 236 250 238 242 241 241 253 253
314 322 321 319 309 235 200 199 188 183 184 173 152 81 244 245 137 291 147 75 57 59 93 146 175 119 168 18 336 222 206 261 254 203 243 187 258 277 251 233 238 243 245 246 251
319 313 316 320 317 253 191 191 177 179 175 162 85 127 265 310 160 207 161 139 110 81 67 120 114 141 95 162 283 231 243 225 296 204 260 201 274 294 302 327 278 260 256 249 254
315 311 312 313 314 276 180 170 143 129 111 125 147 264 268 133 147 121 223 132 118 115 84 113 119 148 155 186 222 215 234 246 226 325 0 293 274 279 282 294 291 286 271 262 254
314 308 309 317 299 310 158 123 107 137 228 191 181 239 54 12 125 67 151 96 89 94 164 155 207 209 202 202 217 133 257 261 272 299 312 273 277 274 274 266 269 267 270 266 256
319 316 306 315 322 297 160 176 184 162 177 235 178 255 294 354 115 113 148 129 137 160 131 141 232 231 242 221 240 247 262 270 288 278 277 293 281 275 264 257 251 254 250 248 253
318 317 302 321 324 288 188 169 147 118 95 241 198 206 203 145 248 183 157 126 130 137 191 188 176 191 191 211 238 236 241 261 271 296 279 280 279 264 251 253 249 249 254 250 244
313 305 291 328 309 251 188 156 148 92 80 235 202 235 153 120 262 181 180 142 155 192 166 240 231 187 172 220 208 256 208 246 258 271 272 130 291 252 263 269 264 239 244 241 240
313 297 291 311 307 293 142 171 124 65 66 161 152 75 156 166 145 214 175 164 162 178 163 218 185 173 221 234 176 236 191 207 223 238 279 238 266 281 331 279 266 253 241 237 237
301 284 280 286 230 243 198 143 62 76 243 159 131 173 152 187 151 118 166 193 23 215 229 218 180 171 196 214 198 106 289 276 242 227 244 230 205 277 259 237 257 259 259 244 243
291 270 261 224 240 208 175 113 106 148 172 153 160 166 171 161 167 161 169 182 184 178 222 248 234 193 174 200 185 180 202 228 229 215 250 200 191 246 301 295 272 272 265 257 241
313 292 244 189 198 60 157 134 109 157 160 134 124 129 165 135 202 177 155 202 213 189 167 220 304 191 184 213 189 190 196 217 231 213 249 216 235 245 226 252 268 288 288 286 253
327 19 132 166 154 80 195 124 170 173 145 132 122 143 176 200 185 169 209 214 195 185 200 195 264 15 199 203 216 174 215 233 271 265 266 236 262 294 257 256 298 305 309 292 261
62 170 175 142 126 197 181 122 109 116 115 137 130 171 177 187 170 184 195 225 207 179 194 170 276 204 258 184 239 232 195 180 195 247 241 246 248 235 277 261 307 339 342 333 300
4 275 126 144 118 136 126 143 90 86 111 145 122 139 155 164 174 185 202 266 199 128 159 139 184 233 139 206 210 195 220 213 251 216 252 274 255 211 216 152 6 340 346 338 325
286 213 160 141 99 109 150 139 114 108 53 93 94 104 140 158 168 194 210 227 178 147 167 184 221 249 229 216 203 219 223 215 228 214 215 236 259 156 147 167 57 2 345 352 342
245 52 139 115 127 150 168 73 90 107 112 94 89 68 101 151 171 202 181 208 169 165 167 166 213 295 292 10 229 229 223 219 235 242 226 232 256 229 199 18 32 358 348 6 3
84 88 62 181 293 114 128 80 94 45 82 90 98 94 93 201 220 142 218 248 190 192 176 172 210 217 251 264 253 246 231 223 221 235 246 233 263 268 296 301 325 359 358 357 331
142 78 194 150 192 166 79 109 111 138 56 104 143 210 166 223 210 220 219 260 171 190 192 178 252 238 252 261 271 266 266 235 213 230 229 254 248 262 252 260 276 326 318 338 251
19 146 170 109 141 151 127 196 167 136 145 176 234 185 192 223 216 174 182 178 216 126 171 201 264 266 273 269 267 269 274 233 219 228 240 255 264 266 276 185 198 333 324 289 255
338 281 76 159 155 154 176 168 184 123 255 168 206 199 224 248 238 252 251 235 211 165 193 208 240 275 283 319 300 259 261 208 214 219 224 237 246 268 292 281 301 294 255 262 230